Location: Ammerl�gen
(47.2167°N, 9.6000°E)
Time: 16:35:59
(UTC+00:00)

Cosmos 1408 - Pass Details

Date: 21 April 2021
Orbit: 467 x 493 km, 82.6° (Epoch: 06 May)

Event Time Altitude Azimuth Distance (km) Brightness Sun altitude
Rises 18:52:41 0° 349° (N) 2,518 6.8 -6.1°
Reaches altitude 10° 18:54:47 10° 348° (NNW) 1,635 5.8 -6.4°
Maximum altitude 18:58:20 75° 264° (W) 491 2.7 -7.0°
Drops below altitude 10° 19:01:52 10° 178° (S) 1,622 4.9 -7.5°
Sets 19:03:56 0° 176° (S) 2,495 5.9 -7.8°
